STARLINK-30049, 56294

Orbit data source: Space-Track

STARLINK-30049, 56294 is a payload satellite owned by SpaceX/Seattle (US) in LEO that was launched on Wed, 19 Apr 2023 UTC via an FALCON 9 launch vehicle from the Air Force Eastern Test Range (AFETR). Payload-class satellites include a variety of spacecraft equipped with specific instruments for various scientific and technological missions. These include communications satellites like Starlink; space stations such as the ISS; scientific satellites like the Hubble; Earth observation satellites from companies like Planet Labs, Umbra, and HawkEye 360; GPS; miniature CubeSats for education and research; and military/defense satellites.

Loading next visibility...
Identifier
56294, 2023-056J
Orbit
LEO
Last TLE update
13 hours ago
Origin
Manufacturer
SpaceX/Seattle
Mission
Operational Commercial Communications
Bus & Motor
STARLINK V2M, Unknown motor
Mass
730 kg wet, ~700 kg dry
Launch date (UTC)
2023-04-19 (2 years ago)
Launch vehicle
FALCON 9
Launch site
Air Force Eastern Test Range (AFETR)
Object type
Payload
Rocket body
Debris
Shape & HBR
Box + 2 Pan, 29 m
Radar Cross Section
33.884 m², Large (>1 m²)

Expand to show TLE details & history

TLE from 13 hours ago
0 STARLINK-30049
1 56294U 23056J   25130.51239387  .00001029  00000-0  91246-4 0  9999
2 56294  43.0032  57.9713 0000970 271.9946  88.0785 15.02537867114417
Epoch: 2025-05-10T12:17Z
Definitive object data (Epoch: 2025-05-10T12:17:50.83Z)
Latitude
-0.00003°
Longitude
4.95636°
Altitude
558.83 km
Speed
7.584 km/s
True Right ascension
03h 51m 53s
True Declination
0° 00' 00"
Sunlit
Object was in daylight at TLE epoch
Visualization TLE readout
Latitude
-35.79834°
Longitude
-48.14485°
Altitude
568.804 km
Speed
7.577 km/s
Apparent Right ascension
22h 48m 59s
Apparent Declination
-40° 12' 27"
Sunlit
Object is in daylight
Visualization observer readout
Local Sidereal Time
09:03:50
Azimuth
260.638° W
Elevation
-69.953°
Doppler factor
1
Orbital elements
Apogee altitude
561.67 km
Perigee altitude
560.324 km
Semi-major axis
6,939.134 km
Eccentricity
0.000097
Inclination
43.0032°
RAAN
57.9713°
Arg. of periapsis
271.9946°
True anomaly
88.08961°
Mean anomaly
88.0785°
Eccentric anomaly
88.08405°
Mean motion
3.75479 °/min
BSTAR
0.000091246
Orbital period
95.88 mins
Loading maneuver chart data...
Loading SW <> Apogee altitude chart data...
Loading historical data...
Loading historical data...
Loading historical data...
Loading historical data...
Loading historical data...
Loading historical data...
Loading historical data...

STARLINK-30049 Visibility forecast

Observer location: undefined°, undefined°

Span
Click to sort rows by Start time (UTC) header in descending order
Start Az.
Max El. time (UTC)
Max El. Az.
Max El.
End time (UTC)
End Az.
7 mins2025-05-11 01:24:03.138Z283.127° WNW2025-05-11 01:28:03.138Z18.332° NNE38.909°2025-05-11 01:31:03.138Z76.39° E
6 mins2025-05-11 03:06:03.138Z288.158° WNW2025-05-11 03:09:03.138Z109.676° ESE43.665°2025-05-11 03:12:03.138Z109.375° ESE
5 mins2025-05-11 04:47:03.138Z254.452° W2025-05-11 04:49:03.138Z213.7° SW23.119°2025-05-11 04:52:03.138Z162.375° S
6 mins2025-05-11 22:01:03.138Z205.915° SW2025-05-11 22:03:03.138Z160.885° S31.409°2025-05-11 22:07:03.138Z82.449° E
7 mins2025-05-11 23:41:03.138Z264.262° W2025-05-11 23:44:03.138Z6.148° NNE43.36°2025-05-11 23:48:03.138Z71.478° E
|